Time,TemperatureF,DewpointF,PressureIn,WindDirection,WindDirectionDegrees,WindSpeedMPH,WindSpeedGustMPH,Humidity,HourlyPrecipIn,Conditions,Clouds,dailyrainin,SoftwareType,DateUTC
2013-08-15 00:01:00,61.1,52.0,24.89,NNW,329,4.0,9.0,72,0.00,,---,0.00,VWS V14.00,2013-08-15 04:01:00,
2013-08-15 00:03:00,61.0,52.3,24.89,NNW,330,3.0,9.0,73,0.00,,---,0.00,VWS V14.00,2013-08-15 04:03:00,
2013-08-15 00:07:00,60.7,52.4,24.89,NNW,335,3.0,6.0,74,0.00,,---,0.00,VWS V14.00,2013-08-15 04:07:00,
2013-08-15 00:12:00,60.6,52.3,24.89,NNW,348,5.0,7.0,74,0.00,,---,0.00,VWS V14.00,2013-08-15 04:12:00,
2013-08-15 00:17:00,60.5,52.2,24.89,NW,317,3.0,7.0,74,0.00,,---,0.00,VWS V14.00,2013-08-15 04:17:00,
2013-08-15 00:23:00,60.2,51.9,24.89,NW,311,2.0,7.0,74,0.00,,---,0.00,VWS V14.00,2013-08-15 04:23:00,
2013-08-15 00:28:00,60.0,52.1,24.89,NNW,330,2.0,7.0,75,0.00,,---,0.00,VWS V14.00,2013-08-15 04:28:00,
2013-08-15 00:33:00,59.8,51.9,24.89,NW,323,6.0,7.0,75,0.00,,---,0.00,VWS V14.00,2013-08-15 04:33:00,
2013-08-15 00:38:00,59.9,52.0,24.89,NNW,342,2.0,4.0,75,0.00,,---,0.00,VWS V14.00,2013-08-15 04:38:00,
2013-08-15 00:43:00,59.8,52.2,24.89,NNW,336,0.0,4.0,76,0.00,,---,0.00,VWS V14.00,2013-08-15 04:43:00,
2013-08-15 00:48:00,59.5,51.9,24.89,NNW,335,3.0,4.0,76,0.00,,---,0.00,VWS V14.00,2013-08-15 04:48:00,
2013-08-15 00:53:00,59.2,52.0,24.89,NNW,334,3.0,4.0,77,0.00,,---,0.00,VWS V14.00,2013-08-15 04:53:00,
2013-08-15 00:58:00,59.0,51.8,24.89,NNW,334,0.0,4.0,77,0.00,,---,0.00,VWS V14.00,2013-08-15 04:58:00,
2013-08-15 01:03:00,59.0,51.8,24.89,WNW,303,3.0,7.0,77,0.00,,---,0.00,VWS V14.00,2013-08-15 05:03:00,
2013-08-15 01:08:00,59.0,51.5,24.89,NW,309,3.0,3.0,76,0.00,,---,0.00,VWS V14.00,2013-08-15 05:08:00,
2013-08-15 01:13:00,59.0,51.1,24.89,NW,309,1.0,4.0,75,0.00,,---,0.00,VWS V14.00,2013-08-15 05:13:00,
2013-08-15 01:18:00,59.0,51.5,24.89,NW,309,3.0,4.0,76,0.00,,---,0.00,VWS V14.00,2013-08-15 05:18:00,
2013-08-15 01:23:00,58.5,51.3,24.89,NW,309,3.0,4.0,77,0.00,,---,0.00,VWS V14.00,2013-08-15 05:23:00,
2013-08-15 01:28:00,58.0,51.2,24.89,NW,309,2.0,4.0,78,0.00,,---,0.00,VWS V14.00,2013-08-15 05:28:00,
2013-08-15 01:33:00,57.6,51.1,24.89,NW,309,3.0,4.0,79,0.00,,---,0.00,VWS V14.00,2013-08-15 05:33:00,
2013-08-15 01:38:00,57.2,50.8,24.89,NW,309,2.0,3.0,79,0.00,,---,0.00,VWS V14.00,2013-08-15 05:38:00,
2013-08-15 01:43:00,56.9,50.8,24.89,NW,309,2.0,3.0,80,0.00,,---,0.00,VWS V14.00,2013-08-15 05:43:00,
2013-08-15 01:49:00,56.9,50.5,24.89,NW,309,0.0,3.0,79,0.00,,---,0.00,VWS V14.00,2013-08-15 05:49:00,
2013-08-15 01:54:00,56.8,50.7,24.89,NW,309,2.0,3.0,80,0.00,,---,0.00,VWS V14.00,2013-08-15 05:54:00,
2013-08-15 01:59:00,56.7,50.9,24.89,NW,310,0.0,4.0,81,0.00,,---,0.00,VWS V14.00,2013-08-15 05:59:00,
2013-08-15 02:04:00,56.7,50.9,24.89,NW,311,0.0,4.0,81,0.00,,---,0.00,VWS V14.00,2013-08-15 06:04:00,
2013-08-15 02:09:00,56.8,51.0,24.89,NW,311,0.0,3.0,81,0.00,,---,0.00,VWS V14.00,2013-08-15 06:09:00,
2013-08-15 02:14:00,56.7,50.6,24.89,NW,310,0.0,3.0,80,0.00,,---,0.00,VWS V14.00,2013-08-15 06:14:00,
2013-08-15 02:19:00,56.7,50.6,24.89,NW,311,0.0,3.0,80,0.00,,---,0.00,VWS V14.00,2013-08-15 06:19:00,
2013-08-15 02:24:00,56.7,50.6,27.39,NW,310,0.0,3.0,80,0.00,,---,0.00,VWS V14.00,2013-08-15 06:24:00,
2013-08-15 02:29:00,56.6,50.5,27.39,NW,311,2.0,3.0,80,0.00,,---,0.00,VWS V14.00,2013-08-15 06:29:00,
2013-08-15 02:34:00,56.3,50.5,27.39,NW,310,2.0,3.0,81,0.00,,---,0.00,VWS V14.00,2013-08-15 06:34:00,
2013-08-15 02:39:00,56.2,50.5,27.39,NW,310,1.0,3.0,81,0.00,,---,0.00,VWS V14.00,2013-08-15 06:39:00,
2013-08-15 02:44:00,56.1,50.4,27.39,NW,311,2.0,3.0,81,0.00,,---,0.00,VWS V14.00,2013-08-15 06:44:00,
2013-08-15 02:49:00,55.9,50.2,27.39,NW,310,2.0,3.0,81,0.00,,---,0.00,VWS V14.00,2013-08-15 06:49:00,
2013-08-15 02:54:00,55.7,50.3,27.39,NW,311,1.0,3.0,82,0.00,,---,0.00,VWS V14.00,2013-08-15 06:54:00,
2013-08-15 02:59:00,55.6,50.2,27.39,NW,311,0.0,3.0,82,0.00,,---,0.00,VWS V14.00,2013-08-15 06:59:00,
2013-08-15 03:04:00,55.4,50.0,27.39,NW,310,3.0,3.0,82,0.00,,---,0.00,VWS V14.00,2013-08-15 07:04:00,
2013-08-15 03:09:00,55.3,49.9,27.39,NW,311,0.0,1.0,82,0.00,,---,0.00,VWS V14.00,2013-08-15 07:09:00,
2013-08-15 03:15:00,55.2,50.1,28.35,NW,311,0.0,2.0,83,0.00,,---,0.00,VWS V14.00,2013-08-15 07:15:00,
2013-08-15 03:20:00,55.2,50.1,28.35,NW,315,0.0,4.0,83,0.00,,---,0.00,VWS V14.00,2013-08-15 07:20:00,
2013-08-15 03:25:00,55.3,50.2,28.35,NW,317,0.0,4.0,83,0.00,,---,0.00,VWS V14.00,2013-08-15 07:25:00,
2013-08-15 03:30:00,55.2,50.1,28.35,NW,317,1.0,4.0,83,0.00,,---,0.00,VWS V14.00,2013-08-15 07:30:00,
2013-08-15 03:35:00,55.1,50.0,28.61,NW,317,0.0,4.0,83,0.00,,---,0.00,VWS V14.00,2013-08-15 07:35:00,
2013-08-15 03:40:00,55.2,50.1,28.61,NW,319,2.0,4.0,83,0.00,,---,0.00,VWS V14.00,2013-08-15 07:40:00,
2013-08-15 03:45:00,55.3,50.2,28.61,NW,318,0.0,4.0,83,0.00,,---,0.00,VWS V14.00,2013-08-15 07:45:00,
2013-08-15 03:50:00,55.2,50.1,28.61,NW,319,1.0,4.0,83,0.00,,---,0.00,VWS V14.00,2013-08-15 07:50:00,
2013-08-15 03:55:00,55.1,50.0,28.63,NW,318,0.0,4.0,83,0.00,,---,0.00,VWS V14.00,2013-08-15 07:55:00,
2013-08-15 04:00:00,55.2,50.5,28.63,NW,319,2.0,4.0,84,0.00,,---,0.00,VWS V14.00,2013-08-15 08:00:00,
2013-08-15 04:05:00,55.1,50.4,28.63,NW,319,1.0,4.0,84,0.00,,---,0.00,VWS V14.00,2013-08-15 08:05:00,
2013-08-15 04:10:00,55.2,50.8,28.63,NW,319,3.0,3.0,85,0.00,,---,0.00,VWS V14.00,2013-08-15 08:10:00,
2013-08-15 04:15:00,55.1,50.7,28.63,NW,319,0.0,4.0,85,0.00,,---,0.00,VWS V14.00,2013-08-15 08:15:00,
2013-08-15 04:20:00,55.0,50.6,28.63,NW,319,1.0,4.0,85,0.00,,---,0.00,VWS V14.00,2013-08-15 08:20:00,
2013-08-15 04:25:00,54.9,50.5,28.63,NW,319,0.0,4.0,85,0.00,,---,0.00,VWS V14.00,2013-08-15 08:25:00,
2013-08-15 04:30:00,54.9,50.5,28.63,NW,319,0.0,4.0,85,0.00,,---,0.00,VWS V14.00,2013-08-15 08:30:00,
2013-08-15 04:35:00,54.8,50.4,28.63,NW,319,0.0,4.0,85,0.00,,---,0.00,VWS V14.00,2013-08-15 08:35:00,
2013-08-15 04:41:00,54.6,50.2,28.63,NW,319,2.0,2.0,85,0.00,,---,0.00,VWS V14.00,2013-08-15 08:41:00,
2013-08-15 04:46:00,54.3,49.9,28.63,NW,319,0.0,2.0,85,0.00,,---,0.00,VWS V14.00,2013-08-15 08:46:00,
2013-08-15 04:51:00,54.2,49.8,28.63,NW,319,0.0,3.0,85,0.00,,---,0.00,VWS V14.00,2013-08-15 08:51:00,
2013-08-15 04:56:00,53.9,49.8,28.63,NW,319,0.0,3.0,86,0.00,,---,0.00,VWS V14.00,2013-08-15 08:56:00,
2013-08-15 05:01:00,53.9,49.8,28.63,NW,319,0.0,3.0,86,0.00,,---,0.00,VWS V14.00,2013-08-15 09:01:00,
2013-08-15 05:06:00,53.7,49.6,28.63,NW,319,0.0,3.0,86,0.00,,---,0.00,VWS V14.00,2013-08-15 09:06:00,
2013-08-15 05:11:00,53.7,49.9,28.63,NW,319,0.0,2.0,87,0.00,,---,0.00,VWS V14.00,2013-08-15 09:11:00,
2013-08-15 05:16:00,53.6,49.8,28.63,NW,319,0.0,3.0,87,0.00,,---,0.00,VWS V14.00,2013-08-15 09:16:00,
2013-08-15 05:21:00,53.7,49.9,28.63,NW,319,0.0,3.0,87,0.00,,---,0.00,VWS V14.00,2013-08-15 09:21:00,
2013-08-15 05:26:00,53.6,49.8,28.63,NW,319,2.0,3.0,87,0.00,,---,0.00,VWS V14.00,2013-08-15 09:26:00,
2013-08-15 05:31:00,53.4,49.6,28.63,NW,319,0.0,3.0,87,0.00,,---,0.00,VWS V14.00,2013-08-15 09:31:00,
2013-08-15 05:36:00,53.2,49.4,28.63,NW,319,0.0,3.0,87,0.00,,---,0.00,VWS V14.00,2013-08-15 09:36:00,
2013-08-15 05:41:00,53.0,49.2,28.63,NW,319,0.0,3.0,87,0.00,,---,0.00,VWS V14.00,2013-08-15 09:41:00,
2013-08-15 05:46:00,53.0,49.2,28.67,NW,319,0.0,3.0,87,0.00,,---,0.00,VWS V14.00,2013-08-15 09:46:00,
2013-08-15 05:51:00,52.9,49.1,28.67,NW,319,2.0,3.0,87,0.00,,---,0.00,VWS V14.00,2013-08-15 09:51:00,
2013-08-15 05:56:00,52.9,49.5,28.67,NW,319,0.0,3.0,88,0.00,,---,0.00,VWS V14.00,2013-08-15 09:56:00,
2013-08-15 06:01:00,53.0,49.5,28.67,NW,319,0.0,3.0,88,0.00,,---,0.00,VWS V14.00,2013-08-15 10:01:00,
2013-08-15 06:06:00,53.1,49.7,28.65,NW,319,0.0,3.0,88,0.00,,---,0.00,VWS V14.00,2013-08-15 10:06:00,
2013-08-15 06:12:00,53.1,49.7,28.65,NW,319,0.0,2.0,88,0.00,,---,0.00,VWS V14.00,2013-08-15 10:12:00,
2013-08-15 06:17:00,53.0,49.5,28.89,NW,319,0.0,2.0,88,0.00,,---,0.00,VWS V14.00,2013-08-15 10:17:00,
2013-08-15 06:22:00,53.0,49.5,28.89,NW,319,0.0,3.0,88,0.00,,---,0.00,VWS V14.00,2013-08-15 10:22:00,
2013-08-15 06:27:00,52.9,49.5,28.89,NW,319,0.0,3.0,88,0.00,,---,0.00,VWS V14.00,2013-08-15 10:27:00,
2013-08-15 06:32:00,52.9,49.5,28.89,NW,319,0.0,3.0,88,0.00,,---,0.00,VWS V14.00,2013-08-15 10:32:00,
2013-08-15 06:37:00,52.9,49.5,28.89,NW,319,0.0,3.0,88,0.00,,---,0.00,VWS V14.00,2013-08-15 10:37:00,
2013-08-15 06:42:00,52.9,49.5,28.89,NW,319,0.0,0.0,88,0.00,,---,0.00,VWS V14.00,2013-08-15 10:42:00,
2013-08-15 06:47:00,52.9,49.5,28.89,NW,319,0.0,0.0,88,0.00,,---,0.00,VWS V14.00,2013-08-15 10:47:00,
2013-08-15 06:52:00,52.9,49.5,28.89,NW,319,0.0,0.0,88,0.00,,---,0.00,VWS V14.00,2013-08-15 10:52:00,
2013-08-15 06:57:00,52.9,49.5,28.89,NW,319,0.0,0.0,88,0.00,,---,0.00,VWS V14.00,2013-08-15 10:57:00,
2013-08-15 07:02:00,52.9,49.5,29.02,NW,319,0.0,3.0,88,0.00,,---,0.00,VWS V14.00,2013-08-15 11:02:00,
2013-08-15 07:07:00,53.0,49.5,29.02,NW,319,0.0,0.0,88,0.00,,---,0.00,VWS V14.00,2013-08-15 11:07:00,
2013-08-15 07:12:00,53.2,49.7,29.02,NW,320,0.0,4.0,88,0.00,,---,0.00,VWS V14.00,2013-08-15 11:12:00,
2013-08-15 07:17:00,53.5,50.0,29.02,NW,320,2.0,4.0,88,0.00,,---,0.00,VWS V14.00,2013-08-15 11:17:00,
2013-08-15 07:22:00,53.6,50.1,29.02,NW,319,0.0,4.0,88,0.00,,---,0.00,VWS V14.00,2013-08-15 11:22:00,
2013-08-15 07:27:00,53.6,50.1,29.02,NW,320,0.0,4.0,88,0.00,,---,0.00,VWS V14.00,2013-08-15 11:27:00,
2013-08-15 07:32:00,53.6,50.1,28.84,NW,319,0.0,4.0,88,0.00,,---,0.00,VWS V14.00,2013-08-15 11:32:00,
2013-08-15 07:37:00,53.8,50.3,28.84,NW,320,2.0,3.0,88,0.00,,---,0.00,VWS V14.00,2013-08-15 11:37:00,
2013-08-15 07:43:00,54.1,50.6,28.84,NW,319,0.0,3.0,88,0.00,,---,0.00,VWS V14.00,2013-08-15 11:43:00,
2013-08-15 07:48:00,54.6,50.8,28.92,NW,319,0.0,3.0,87,0.00,,---,0.00,VWS V14.00,2013-08-15 11:48:00,
2013-08-15 07:53:00,55.1,51.3,28.92,NW,321,3.0,4.0,87,0.00,,---,0.00,VWS V14.00,2013-08-15 11:53:00,
2013-08-15 07:58:00,55.6,51.8,28.92,NNW,338,2.0,5.0,87,0.00,,---,0.00,VWS V14.00,2013-08-15 11:58:00,
2013-08-15 08:03:00,55.9,51.8,28.92,North,355,1.0,5.0,86,0.00,,---,0.00,VWS V14.00,2013-08-15 12:03:00,
2013-08-15 08:08:00,56.3,51.9,28.92,North,360,4.0,4.0,85,0.00,,---,0.00,VWS V14.00,2013-08-15 12:08:00,
2013-08-15 08:13:00,56.5,51.7,28.92,North,360,0.0,5.0,84,0.00,,---,0.00,VWS V14.00,2013-08-15 12:13:00,
2013-08-15 08:18:00,56.9,52.4,28.92,NNW,345,2.0,5.0,85,0.00,,---,0.00,VWS V14.00,2013-08-15 12:18:00,
2013-08-15 08:23:00,57.0,52.2,28.92,NNE,28,2.0,6.0,84,0.00,,---,0.00,VWS V14.00,2013-08-15 12:23:00,
2013-08-15 08:28:00,57.3,52.2,28.92,NW,319,5.0,6.0,83,0.00,,---,0.00,VWS V14.00,2013-08-15 12:28:00,
2013-08-15 08:33:00,57.4,52.3,28.92,NNE,14,2.0,6.0,83,0.00,,---,0.00,VWS V14.00,2013-08-15 12:33:00,
2013-08-15 08:38:00,57.8,52.3,28.92,NNW,340,0.0,3.0,82,0.00,,---,0.00,VWS V14.00,2013-08-15 12:38:00,
2013-08-15 08:43:00,58.1,52.0,28.92,NNW,341,0.0,5.0,80,0.00,,---,0.00,VWS V14.00,2013-08-15 12:43:00,
2013-08-15 08:48:00,58.8,53.0,28.92,NNE,14,4.0,6.0,81,0.00,,---,0.00,VWS V14.00,2013-08-15 12:48:00,
2013-08-15 08:53:00,59.0,52.5,28.92,NNE,18,0.0,6.0,79,0.00,,---,0.00,VWS V14.00,2013-08-15 12:53:00,
2013-08-15 08:59:00,59.1,52.6,28.92,North,5,3.0,6.0,79,0.00,,---,0.00,VWS V14.00,2013-08-15 12:59:00,
2013-08-15 09:04:00,59.2,52.3,28.92,NNE,19,3.0,6.0,78,0.00,,---,0.00,VWS V14.00,2013-08-15 13:04:00,
2013-08-15 09:09:00,59.0,52.2,28.92,North,351,3.0,3.0,78,0.00,,---,0.00,VWS V14.00,2013-08-15 13:09:00,
2013-08-15 09:14:00,59.3,52.5,28.92,North,349,5.0,5.0,78,0.00,,---,0.00,VWS V14.00,2013-08-15 13:14:00,
2013-08-15 09:19:00,59.7,52.8,28.92,North,355,5.0,5.0,78,0.00,,---,0.00,VWS V14.00,2013-08-15 13:19:00,
2013-08-15 09:24:00,60.1,53.6,28.92,NNE,17,4.0,6.0,79,0.00,,---,0.00,VWS V14.00,2013-08-15 13:24:00,
2013-08-15 09:29:00,60.5,53.3,28.92,NE,56,4.0,6.0,77,0.00,,---,0.00,VWS V14.00,2013-08-15 13:29:00,
2013-08-15 09:34:00,60.8,53.5,28.92,ENE,57,3.0,6.0,77,0.00,,---,0.00,VWS V14.00,2013-08-15 13:34:00,
2013-08-15 09:39:00,61.1,53.8,28.92,NNE,32,5.0,5.0,77,0.00,,---,0.00,VWS V14.00,2013-08-15 13:39:00,
2013-08-15 09:44:00,61.2,53.9,28.92,NE,37,0.0,5.0,77,0.00,,---,0.00,VWS V14.00,2013-08-15 13:44:00,
2013-08-15 09:49:00,61.4,53.8,28.92,NNE,24,4.0,5.0,76,0.00,,---,0.00,VWS V14.00,2013-08-15 13:49:00,
2013-08-15 09:54:00,61.7,54.1,28.92,NE,46,4.0,5.0,76,0.00,,---,0.00,VWS V14.00,2013-08-15 13:54:00,
2013-08-15 09:59:00,61.6,53.2,28.92,NNE,27,5.0,8.0,74,0.00,,---,0.00,VWS V14.00,2013-08-15 13:59:00,
2013-08-15 10:04:00,61.8,53.4,28.92,NE,49,5.0,8.0,74,0.00,,---,0.00,VWS V14.00,2013-08-15 14:04:00,
2013-08-15 10:09:00,61.9,53.9,28.92,NNE,32,6.0,6.0,75,0.00,,---,0.00,VWS V14.00,2013-08-15 14:09:00,
2013-08-15 10:14:00,62.1,53.7,28.92,NNE,22,4.0,7.0,74,0.00,,---,0.00,VWS V14.00,2013-08-15 14:14:00,
2013-08-15 10:19:00,62.3,53.5,28.92,NNE,29,4.0,7.0,73,0.00,,---,0.00,VWS V14.00,2013-08-15 14:19:00,
2013-08-15 10:25:00,62.6,53.8,28.92,NE,46,7.0,7.0,73,0.00,,---,0.00,VWS V14.00,2013-08-15 14:25:00,
2013-08-15 10:30:00,62.8,54.0,28.92,NNE,24,4.0,7.0,73,0.00,,---,0.00,VWS V14.00,2013-08-15 14:30:00,
2013-08-15 10:35:00,63.0,53.8,28.92,NE,45,5.0,7.0,72,0.00,,---,0.00,VWS V14.00,2013-08-15 14:35:00,
2013-08-15 10:40:00,63.2,54.0,28.92,NE,36,4.0,9.0,72,0.00,,---,0.00,VWS V14.00,2013-08-15 14:40:00,
2013-08-15 10:45:00,63.3,54.1,28.92,NE,44,5.0,9.0,72,0.00,,---,0.00,VWS V14.00,2013-08-15 14:45:00,
2013-08-15 10:50:00,63.6,54.8,28.92,NE,55,6.0,9.0,73,0.00,,---,0.00,VWS V14.00,2013-08-15 14:50:00,
2013-08-15 10:56:00,63.8,54.6,28.92,ENE,61,4.0,9.0,72,0.00,,---,0.00,VWS V14.00,2013-08-15 14:56:00,
2013-08-15 11:01:00,64.0,54.0,28.92,ENE,60,4.0,9.0,70,0.00,,---,0.00,VWS V14.00,2013-08-15 15:01:00,
2013-08-15 11:06:00,64.1,53.7,28.92,NE,34,4.0,9.0,69,0.00,,---,0.00,VWS V14.00,2013-08-15 15:06:00,
2013-08-15 11:11:00,64.3,53.9,28.92,ENE,57,3.0,9.0,69,0.00,,---,0.00,VWS V14.00,2013-08-15 15:11:00,
2013-08-15 11:16:00,64.4,53.6,28.92,NE,42,5.0,10.0,68,0.00,,---,0.00,VWS V14.00,2013-08-15 15:16:00,
2013-08-15 11:21:00,64.7,54.7,28.92,NE,40,6.0,10.0,70,0.00,,---,0.00,VWS V14.00,2013-08-15 15:21:00,
2013-08-15 11:26:00,64.8,54.0,28.92,NE,37,4.0,10.0,68,0.00,,---,0.00,VWS V14.00,2013-08-15 15:26:00,
2013-08-15 11:31:00,64.8,54.0,28.92,NE,48,4.0,10.0,68,0.00,,---,0.00,VWS V14.00,2013-08-15 15:31:00,
2013-08-15 11:36:00,65.1,54.7,28.92,NE,52,4.0,10.0,69,0.00,,---,0.00,VWS V14.00,2013-08-15 15:36:00,
2013-08-15 11:41:00,65.4,54.6,28.92,NE,55,0.0,5.0,68,0.00,,---,0.00,VWS V14.00,2013-08-15 15:41:00,
2013-08-15 11:46:00,65.7,54.0,28.92,NE,34,5.0,7.0,66,0.00,,---,0.00,VWS V14.00,2013-08-15 15:46:00,
2013-08-15 11:52:00,65.9,54.7,28.92,NE,49,4.0,7.0,67,0.00,,---,0.00,VWS V14.00,2013-08-15 15:52:00,
2013-08-15 11:57:00,66.0,54.3,28.92,NNE,28,3.0,7.0,66,0.00,,---,0.00,VWS V14.00,2013-08-15 15:57:00,
2013-08-15 12:02:00,66.2,53.2,28.92,NE,48,3.0,7.0,63,0.00,,---,0.00,VWS V14.00,2013-08-15 16:02:00,
2013-08-15 12:08:00,66.4,53.4,28.92,NE,52,6.0,6.0,63,0.00,,---,0.00,VWS V14.00,2013-08-15 16:08:00,
2013-08-15 12:13:00,66.5,54.0,28.92,ENE,69,6.0,10.0,64,0.00,,---,0.00,VWS V14.00,2013-08-15 16:13:00,
2013-08-15 12:18:00,66.6,53.6,28.92,NE,52,7.0,10.0,63,0.00,,---,0.00,VWS V14.00,2013-08-15 16:18:00,
2013-08-15 12:23:00,66.6,53.6,28.92,NNE,31,3.0,10.0,63,0.00,,---,0.00,VWS V14.00,2013-08-15 16:23:00,
2013-08-15 12:28:00,66.8,53.4,28.92,ENE,68,5.0,10.0,62,0.00,,---,0.00,VWS V14.00,2013-08-15 16:28:00,
2013-08-15 12:33:00,66.7,53.3,28.92,ENE,60,5.0,10.0,62,0.00,,---,0.00,VWS V14.00,2013-08-15 16:33:00,
2013-08-15 12:38:00,66.8,53.8,28.92,ENE,61,3.0,5.0,63,0.00,,---,0.00,VWS V14.00,2013-08-15 16:38:00,
2013-08-15 12:43:00,67.1,54.5,28.92,NNE,25,4.0,6.0,64,0.00,,---,0.00,VWS V14.00,2013-08-15 16:43:00,
2013-08-15 12:48:00,67.1,55.0,28.92,NNE,27,7.0,8.0,65,0.00,,---,0.00,VWS V14.00,2013-08-15 16:48:00,
2013-08-15 12:53:00,67.2,54.6,28.92,NNW,336,3.0,8.0,64,0.00,,---,0.00,VWS V14.00,2013-08-15 16:53:00,
2013-08-15 12:58:00,67.4,55.2,28.92,North,11,3.0,8.0,65,0.00,,---,0.00,VWS V14.00,2013-08-15 16:58:00,
2013-08-15 13:03:00,67.4,54.8,28.92,North,360,5.0,8.0,64,0.00,,---,0.00,VWS V14.00,2013-08-15 17:03:00,
2013-08-15 13:08:00,67.4,54.8,28.92,NNW,344,4.0,7.0,64,0.00,,---,0.00,VWS V14.00,2013-08-15 17:08:00,
2013-08-15 13:13:00,67.4,54.4,28.92,NNE,14,1.0,7.0,63,0.00,,---,0.00,VWS V14.00,2013-08-15 17:13:00,
2013-08-15 13:18:00,67.5,54.9,28.92,North,9,5.0,8.0,64,0.00,,---,0.00,VWS V14.00,2013-08-15 17:18:00,
2013-08-15 13:24:00,67.5,54.9,28.92,NNE,23,4.0,9.0,64,0.00,,---,0.00,VWS V14.00,2013-08-15 17:24:00,
2013-08-15 13:29:00,67.4,53.9,28.92,NE,51,4.0,10.0,62,0.00,,---,0.00,VWS V14.00,2013-08-15 17:29:00,
2013-08-15 13:35:00,67.5,53.6,28.92,NNW,348,2.0,10.0,61,0.00,,---,0.00,VWS V14.00,2013-08-15 17:35:00,
2013-08-15 13:40:00,67.8,53.9,28.92,NNW,344,9.0,9.0,61,0.00,,---,0.00,VWS V14.00,2013-08-15 17:40:00,
2013-08-15 13:46:00,68.0,54.1,28.92,NNW,334,1.0,9.0,61,0.00,,---,0.00,VWS V14.00,2013-08-15 17:46:00,
2013-08-15 13:52:00,68.5,55.0,28.92,North,360,11.0,11.0,62,0.00,,---,0.00,VWS V14.00,2013-08-15 17:52:00,
2013-08-15 13:57:00,68.3,53.9,28.92,NNW,336,6.0,11.0,60,0.00,,---,0.00,VWS V14.00,2013-08-15 17:57:00,
2013-08-15 14:02:00,68.2,53.8,28.92,North,355,4.0,11.0,60,0.00,,---,0.00,VWS V14.00,2013-08-15 18:02:00,
2013-08-15 14:07:00,68.1,54.2,28.92,NE,49,7.0,11.0,61,0.00,,---,0.00,VWS V14.00,2013-08-15 18:07:00,
2013-08-15 14:12:00,67.9,53.1,28.92,NE,42,6.0,10.0,59,0.00,,---,0.00,VWS V14.00,2013-08-15 18:12:00,
2013-08-15 14:18:00,68.3,53.9,28.92,NNE,25,4.0,11.0,60,0.00,,---,0.00,VWS V14.00,2013-08-15 18:18:00,
2013-08-15 14:23:00,68.6,54.6,28.92,NNE,33,10.0,11.0,61,0.00,,---,0.00,VWS V14.00,2013-08-15 18:23:00,
2013-08-15 14:28:00,68.7,53.8,28.92,NNE,13,3.0,11.0,59,0.00,,---,0.00,VWS V14.00,2013-08-15 18:28:00,
2013-08-15 14:33:00,68.6,54.2,28.92,North,5,4.0,12.0,60,0.00,,---,0.00,VWS V14.00,2013-08-15 18:33:00,
2013-08-15 14:38:00,68.5,54.1,28.92,NNE,20,5.0,12.0,60,0.00,,---,0.00,VWS V14.00,2013-08-15 18:38:00,
2013-08-15 14:44:00,68.5,54.1,28.92,North,360,5.0,12.0,60,0.00,,---,0.00,VWS V14.00,2013-08-15 18:44:00,
2013-08-15 14:49:00,68.5,54.1,28.92,ENE,64,3.0,12.0,60,0.00,,---,0.00,VWS V14.00,2013-08-15 18:49:00,
2013-08-15 14:54:00,68.6,53.7,28.92,ENE,64,0.0,12.0,59,0.00,,---,0.00,VWS V14.00,2013-08-15 18:54:00,
2013-08-15 15:00:00,68.7,54.3,28.92,NNE,26,6.0,12.0,60,0.00,,---,0.00,VWS V14.00,2013-08-15 19:00:00,
2013-08-15 15:05:00,68.6,53.7,28.92,NNE,21,4.0,12.0,59,0.00,,---,0.00,VWS V14.00,2013-08-15 19:05:00,
2013-08-15 15:11:00,68.8,54.8,28.92,NE,56,5.0,6.0,61,0.00,,---,0.00,VWS V14.00,2013-08-15 19:11:00,
2013-08-15 15:16:00,68.9,54.5,28.92,NE,45,1.0,6.0,60,0.00,,---,0.00,VWS V14.00,2013-08-15 19:16:00,
2013-08-15 15:21:00,69.0,55.5,28.92,NE,36,7.0,10.0,62,0.00,,---,0.00,VWS V14.00,2013-08-15 19:21:00,
2013-08-15 15:27:00,69.0,55.5,28.92,NNE,24,8.0,11.0,62,0.00,,---,0.00,VWS V14.00,2013-08-15 19:27:00,
2013-08-15 15:32:00,68.8,54.8,28.92,NNE,32,5.0,11.0,61,0.00,,---,0.00,VWS V14.00,2013-08-15 19:32:00,
2013-08-15 15:37:00,69.0,55.5,28.92,NNE,12,7.0,11.0,62,0.00,,---,0.00,VWS V14.00,2013-08-15 19:37:00,
2013-08-15 15:42:00,69.2,54.3,28.92,NNE,22,3.0,8.0,59,0.00,,---,0.00,VWS V14.00,2013-08-15 19:42:00,
2013-08-15 15:48:00,69.4,55.4,28.92,NNE,22,4.0,8.0,61,0.00,,---,0.00,VWS V14.00,2013-08-15 19:48:00,
2013-08-15 15:53:00,69.5,55.0,28.92,NE,46,4.0,8.0,60,0.00,,---,0.00,VWS V14.00,2013-08-15 19:53:00,
2013-08-15 15:58:00,69.5,55.9,28.92,NE,40,4.0,8.0,62,0.00,,---,0.00,VWS V14.00,2013-08-15 19:58:00,
2013-08-15 16:03:00,69.4,55.4,28.92,NE,36,3.0,8.0,61,0.00,,---,0.00,VWS V14.00,2013-08-15 20:03:00,
2013-08-15 16:10:00,69.4,55.4,28.92,ENE,59,5.0,5.0,61,0.00,,---,0.00,VWS V14.00,2013-08-15 20:10:00,
2013-08-15 16:15:00,69.6,55.6,28.92,ENE,67,3.0,9.0,61,0.00,,---,0.00,VWS V14.00,2013-08-15 20:15:00,
2013-08-15 16:21:00,69.6,56.0,28.92,ENE,78,2.0,9.0,62,0.00,,---,0.00,VWS V14.00,2013-08-15 20:21:00,
2013-08-15 16:26:00,69.8,55.3,28.92,North,360,6.0,12.0,60,0.00,,---,0.00,VWS V14.00,2013-08-15 20:26:00,
2013-08-15 16:31:00,69.9,56.3,28.92,North,360,4.0,12.0,62,0.00,,---,0.00,VWS V14.00,2013-08-15 20:31:00,
2013-08-15 16:36:00,70.1,55.6,28.92,North,360,6.0,12.0,60,0.00,,---,0.00,VWS V14.00,2013-08-15 20:36:00,
2013-08-15 16:42:00,70.3,56.2,28.92,NNE,24,10.0,11.0,61,0.00,,---,0.00,VWS V14.00,2013-08-15 20:42:00,
2013-08-15 16:47:00,70.1,55.6,28.92,ENE,59,5.0,11.0,60,0.00,,---,0.00,VWS V14.00,2013-08-15 20:47:00,
2013-08-15 16:52:00,70.1,55.6,28.92,North,10,0.0,11.0,60,0.00,,---,0.00,VWS V14.00,2013-08-15 20:52:00,
2013-08-15 16:57:00,70.3,55.3,28.92,NNE,26,6.0,11.0,59,0.00,,---,0.00,VWS V14.00,2013-08-15 20:57:00,
2013-08-15 17:03:00,70.2,55.7,28.92,ENE,59,3.0,12.0,60,0.00,,---,0.00,VWS V14.00,2013-08-15 21:03:00,
2013-08-15 17:08:00,70.2,55.2,28.92,ENE,59,0.0,1.0,59,0.00,,---,0.00,VWS V14.00,2013-08-15 21:08:00,
2013-08-15 17:13:00,70.4,55.4,28.92,ENE,59,0.0,3.0,59,0.00,,---,0.00,VWS V14.00,2013-08-15 21:13:00,
2013-08-15 17:18:00,70.6,57.0,28.92,NE,51,0.0,6.0,62,0.00,,---,0.00,VWS V14.00,2013-08-15 21:18:00,
2013-08-15 17:23:00,70.8,55.8,28.92,NNE,30,3.0,6.0,59,0.00,,---,0.00,VWS V14.00,2013-08-15 21:23:00,
2013-08-15 17:29:00,70.8,55.8,28.92,North,355,4.0,6.0,59,0.00,,---,0.00,VWS V14.00,2013-08-15 21:29:00,
2013-08-15 17:34:00,70.8,56.2,28.92,NNE,33,7.0,9.0,60,0.00,,---,0.00,VWS V14.00,2013-08-15 21:34:00,
2013-08-15 17:39:00,70.7,55.7,28.92,NNE,17,1.0,4.0,59,0.00,,---,0.00,VWS V14.00,2013-08-15 21:39:00,
2013-08-15 17:45:00,70.6,56.5,28.92,NE,56,1.0,7.0,61,0.00,,---,0.00,VWS V14.00,2013-08-15 21:45:00,
2013-08-15 17:50:00,70.6,56.1,28.92,North,350,2.0,7.0,60,0.00,,---,0.00,VWS V14.00,2013-08-15 21:50:00,
2013-08-15 17:55:00,70.7,55.7,28.92,NNW,334,3.0,7.0,59,0.00,,---,0.00,VWS V14.00,2013-08-15 21:55:00,
2013-08-15 18:00:00,70.6,55.6,28.92,NNW,342,4.0,7.0,59,0.00,,---,0.00,VWS V14.00,2013-08-15 22:00:00,
2013-08-15 18:05:00,70.8,56.2,28.92,North,5,3.0,7.0,60,0.00,,---,0.00,VWS V14.00,2013-08-15 22:05:00,
2013-08-15 18:10:00,70.9,56.3,28.92,NNE,19,6.0,7.0,60,0.00,,---,0.00,VWS V14.00,2013-08-15 22:10:00,
2013-08-15 18:15:00,70.9,55.9,28.92,NNE,22,3.0,10.0,59,0.00,,---,0.00,VWS V14.00,2013-08-15 22:15:00,
2013-08-15 18:20:00,71.0,56.9,28.92,NNW,340,0.0,10.0,61,0.00,,---,0.00,VWS V14.00,2013-08-15 22:20:00,
2013-08-15 18:26:00,71.1,56.5,28.92,North,9,4.0,10.0,60,0.00,,---,0.00,VWS V14.00,2013-08-15 22:26:00,
2013-08-15 18:31:00,71.1,56.1,28.92,NW,326,5.0,10.0,59,0.00,,---,0.00,VWS V14.00,2013-08-15 22:31:00,
2013-08-15 18:36:00,70.9,56.3,28.92,NNW,333,4.0,10.0,60,0.00,,---,0.00,VWS V14.00,2013-08-15 22:36:00,
2013-08-15 18:41:00,70.6,56.1,25.48,NNW,330,3.0,5.0,60,0.00,,---,0.00,VWS V14.00,2013-08-15 22:41:00,
2013-08-15 18:46:00,70.4,55.9,25.48,North,9,5.0,9.0,60,0.00,,---,0.00,VWS V14.00,2013-08-15 22:46:00,
2013-08-15 18:51:00,70.4,56.8,25.48,North,355,2.0,9.0,62,0.00,,---,0.00,VWS V14.00,2013-08-15 22:51:00,
2013-08-15 18:56:00,70.2,56.6,25.48,NNW,330,0.0,9.0,62,0.00,,---,0.00,VWS V14.00,2013-08-15 22:56:00,
2013-08-15 18:57:00,70.2,57.0,25.48,NNW,330,2.0,9.0,63,0.00,,---,0.00,VWS V14.00,2013-08-15 22:57:00,
2013-08-15 19:02:00,70.1,57.4,25.48,NNW,331,3.0,9.0,64,0.00,,---,0.00,VWS V14.00,2013-08-15 23:02:00,
2013-08-15 19:07:00,70.2,57.0,25.48,NNE,26,4.0,6.0,63,0.00,,---,0.00,VWS V14.00,2013-08-15 23:07:00,
2013-08-15 19:12:00,70.3,57.1,25.48,North,5,2.0,6.0,63,0.00,,---,0.00,VWS V14.00,2013-08-15 23:12:00,
2013-08-15 19:17:00,70.3,56.7,25.48,North,11,4.0,7.0,62,0.00,,---,0.00,VWS V14.00,2013-08-15 23:17:00,
2013-08-15 19:22:00,70.2,57.0,25.48,North,360,0.0,7.0,63,0.00,,---,0.00,VWS V14.00,2013-08-15 23:22:00,
2013-08-15 19:28:00,70.0,57.3,25.48,North,360,0.0,7.0,64,0.00,,---,0.00,VWS V14.00,2013-08-15 23:28:00,
2013-08-15 19:33:00,69.8,57.5,25.48,North,360,0.0,7.0,65,0.00,,---,0.00,VWS V14.00,2013-08-15 23:33:00,
2013-08-15 19:38:00,69.5,57.7,25.48,NNW,330,0.0,2.0,66,0.00,,---,0.00,VWS V14.00,2013-08-15 23:38:00,
2013-08-15 19:43:00,69.2,57.4,25.48,NNW,330,1.0,4.0,66,0.00,,---,0.00,VWS V14.00,2013-08-15 23:43:00,
2013-08-15 19:48:00,68.9,57.5,25.48,NW,311,2.0,5.0,67,0.00,,---,0.00,VWS V14.00,2013-08-15 23:48:00,
2013-08-15 19:53:00,68.5,57.1,25.48,NW,311,1.0,5.0,67,0.00,,---,0.00,VWS V14.00,2013-08-15 23:53:00,
2013-08-15 19:58:00,68.3,56.9,25.48,North,360,0.0,5.0,67,0.00,,---,0.00,VWS V14.00,2013-08-15 23:58:00,
2013-08-15 20:03:00,68.2,57.7,25.48,North,355,4.0,5.0,69,0.00,,---,0.00,VWS V14.00,2013-08-16 00:03:00,
2013-08-15 20:09:00,67.4,57.3,25.48,WNW,302,3.0,4.0,70,0.00,,---,0.00,VWS V14.00,2013-08-16 00:09:00,
2013-08-15 20:14:00,66.7,57.0,25.48,WNW,302,0.0,4.0,71,0.00,,---,0.00,VWS V14.00,2013-08-16 00:14:00,
2013-08-15 20:19:00,66.3,57.0,25.48,WNW,302,2.0,4.0,72,0.00,,---,0.00,VWS V14.00,2013-08-16 00:19:00,
2013-08-15 20:24:00,65.8,57.3,25.48,WNW,302,1.0,4.0,74,0.00,,---,0.00,VWS V14.00,2013-08-16 00:24:00,
2013-08-15 20:29:00,65.4,56.9,25.48,WNW,302,0.0,4.0,74,0.00,,---,0.00,VWS V14.00,2013-08-16 00:29:00,
2013-08-15 20:34:00,65.5,57.4,25.48,WNW,302,0.0,4.0,75,0.00,,---,0.00,VWS V14.00,2013-08-16 00:34:00,
2013-08-15 20:39:00,65.4,57.3,25.48,WNW,302,0.0,1.0,75,0.00,,---,0.00,VWS V14.00,2013-08-16 00:39:00,
2013-08-15 20:44:00,65.2,57.5,25.48,WNW,302,0.0,3.0,76,0.00,,---,0.00,VWS V14.00,2013-08-16 00:44:00,
2013-08-15 20:49:00,65.0,57.3,25.48,WNW,302,0.0,3.0,76,0.00,,---,0.00,VWS V14.00,2013-08-16 00:49:00,
2013-08-15 20:54:00,64.6,57.2,25.48,WNW,302,0.0,3.0,77,0.00,,---,0.00,VWS V14.00,2013-08-16 00:54:00,
2013-08-15 20:59:00,64.3,57.3,25.48,WNW,302,0.0,3.0,78,0.00,,---,0.00,VWS V14.00,2013-08-16 00:59:00,
2013-08-15 21:05:00,64.0,57.4,25.48,WNW,302,0.0,3.0,79,0.00,,---,0.00,VWS V14.00,2013-08-16 01:05:00,
2013-08-15 21:10:00,63.8,57.2,25.48,WNW,302,0.0,1.0,79,0.00,,---,0.00,VWS V14.00,2013-08-16 01:10:00,
2013-08-15 21:16:00,63.7,57.1,25.48,WNW,302,0.0,1.0,79,0.00,,---,0.00,VWS V14.00,2013-08-16 01:16:00,
2013-08-15 21:21:00,63.8,56.8,25.48,WNW,302,0.0,1.0,78,0.00,,---,0.00,VWS V14.00,2013-08-16 01:21:00,
2013-08-15 21:26:00,63.9,56.9,25.48,WNW,302,0.0,2.0,78,0.00,,---,0.00,VWS V14.00,2013-08-16 01:26:00,
2013-08-15 21:31:00,63.9,56.9,25.48,WNW,302,0.0,2.0,78,0.00,,---,0.00,VWS V14.00,2013-08-16 01:31:00,
2013-08-15 21:37:00,64.0,57.0,25.48,WNW,302,2.0,3.0,78,0.00,,---,0.00,VWS V14.00,2013-08-16 01:37:00,
2013-08-15 21:42:00,63.9,56.9,25.48,WNW,302,0.0,3.0,78,0.00,,---,0.00,VWS V14.00,2013-08-16 01:42:00,
2013-08-15 21:47:00,63.8,56.8,25.48,WNW,302,0.0,3.0,78,0.00,,---,0.00,VWS V14.00,2013-08-16 01:47:00,
2013-08-15 21:52:00,63.7,56.7,25.48,WNW,302,0.0,3.0,78,0.00,,---,0.00,VWS V14.00,2013-08-16 01:52:00,
2013-08-15 21:57:00,63.7,56.7,25.48,WNW,302,0.0,3.0,78,0.00,,---,0.00,VWS V14.00,2013-08-16 01:57:00,
2013-08-15 22:02:00,63.7,56.7,25.48,WNW,302,0.0,3.0,78,0.00,,---,0.00,VWS V14.00,2013-08-16 02:02:00,
2013-08-15 22:07:00,63.7,57.1,25.48,WNW,302,0.0,0.0,79,0.00,,---,0.00,VWS V14.00,2013-08-16 02:07:00,
2013-08-15 22:12:00,63.8,57.2,25.48,WNW,302,0.0,2.0,79,0.00,,---,0.00,VWS V14.00,2013-08-16 02:12:00,
2013-08-15 22:17:00,63.8,56.8,25.48,WNW,302,0.0,3.0,78,0.00,,---,0.00,VWS V14.00,2013-08-16 02:17:00,
2013-08-15 22:22:00,63.7,57.4,25.48,WNW,302,2.0,3.0,80,0.00,,---,0.00,VWS V14.00,2013-08-16 02:22:00,
2013-08-15 22:28:00,63.7,57.4,25.48,WNW,302,0.0,3.0,80,0.00,,---,0.00,VWS V14.00,2013-08-16 02:28:00,
2013-08-15 22:29:00,63.7,57.4,25.48,WNW,302,0.0,3.0,80,0.00,,---,0.00,VWS V14.00,2013-08-16 02:29:00,
2013-08-15 22:34:00,63.8,57.5,25.48,WNW,302,1.0,3.0,80,0.00,,---,0.00,VWS V14.00,2013-08-16 02:34:00,
2013-08-15 22:40:00,63.8,57.5,25.48,NW,306,0.0,4.0,80,0.00,,---,0.00,VWS V14.00,2013-08-16 02:40:00,
2013-08-15 22:45:00,63.7,57.8,25.24,NW,306,0.0,4.0,81,0.00,,---,0.00,VWS V14.00,2013-08-16 02:45:00,
2013-08-15 22:50:00,63.7,57.8,25.24,NW,306,3.0,4.0,81,0.00,,---,0.00,VWS V14.00,2013-08-16 02:50:00,
2013-08-15 22:55:00,63.6,57.3,25.24,NW,306,3.0,5.0,80,0.00,,---,0.00,VWS V14.00,2013-08-16 02:55:00,
2013-08-15 23:00:00,63.7,57.4,25.24,NW,310,4.0,5.0,80,0.00,,---,0.00,VWS V14.00,2013-08-16 03:00:00,
2013-08-15 23:05:00,63.9,57.3,25.24,NW,310,1.0,5.0,79,0.00,,---,0.00,VWS V14.00,2013-08-16 03:05:00,
2013-08-15 23:10:00,63.9,56.9,25.24,NW,310,3.0,3.0,78,0.00,,---,0.00,VWS V14.00,2013-08-16 03:10:00,
2013-08-15 23:15:00,63.8,56.8,25.24,NW,310,2.0,4.0,78,0.00,,---,0.00,VWS V14.00,2013-08-16 03:15:00,
2013-08-15 23:20:00,63.8,56.8,25.24,NW,310,0.0,4.0,78,0.00,,---,0.00,VWS V14.00,2013-08-16 03:20:00,
2013-08-15 23:25:00,63.6,57.0,25.24,NW,310,0.0,4.0,79,0.00,,---,0.00,VWS V14.00,2013-08-16 03:25:00,
2013-08-15 23:31:00,63.3,56.7,25.24,NW,310,0.0,4.0,79,0.00,,---,0.00,VWS V14.00,2013-08-16 03:31:00,
2013-08-15 23:36:00,63.2,56.9,25.24,NW,310,2.0,4.0,80,0.00,,---,0.00,VWS V14.00,2013-08-16 03:36:00,
2013-08-15 23:41:00,63.3,56.7,25.24,NW,310,0.0,4.0,79,0.00,,---,0.00,VWS V14.00,2013-08-16 03:41:00,
2013-08-15 23:46:00,63.2,56.6,25.24,NW,310,0.0,4.0,79,0.00,,---,0.00,VWS V14.00,2013-08-16 03:46:00,
2013-08-15 23:51:00,63.1,56.5,25.24,NW,310,2.0,4.0,79,0.00,,---,0.00,VWS V14.00,2013-08-16 03:51:00,
2013-08-15 23:56:00,62.7,56.5,25.24,NW,310,3.0,5.0,80,0.00,,---,0.00,VWS V14.00,2013-08-16 03:56:00,